GFSCGP_925_spd_132.txt.gz
Wind_Speed
9 5 10 13 8 4 5 5 5 0 3 4 14 18 21 17 16 15 14 14 16 17 21 17 18 22 23 24 26 28 28 29 27 26 25 23 23 22 22 21 21 22 22 21
6 18 23 12 9 12 6 6 3 4 2 2 13 18 22 19 16 19 20 19 17 15 15 18 21 21 25 28 29 31 33 30 30 28 28 23 23 24 23 22 22 25 23 24
11 5 12 18 16 14 8 5 3 1 7 10 13 22 24 18 20 21 22 22 22 23 22 21 24 27 26 28 33 34 33 34 33 32 27 23 19 18 20 24 23 27 28 27
10 4 18 19 22 18 18 13 11 7 2 3 5 8 18 17 16 16 18 21 24 25 24 22 25 26 28 32 28 31 33 34 35 32 30 30 29 27 28 25 24 25 29 30
9 16 17 22 23 17 11 15 17 12 10 10 16 7 8 8 14 18 20 20 22 22 22 23 25 29 27 25 28 31 32 33 33 34 34 33 31 30 28 25 25 26 25 31
7 1 7 8 11 18 11 11 6 4 5 9 18 15 10 9 9 14 18 19 17 17 17 18 23 23 25 23 25 27 29 33 34 35 36 36 32 31 26 27 26 26 25 24
5 4 4 8 11 8 11 11 3 4 5 10 3 10 17 10 15 17 15 14 10 9 12 13 13 17 20 23 25 27 28 31 32 35 36 37 37 34 32 29 28 24 23 22
10 8 15 9 9 7 16 12 4 6 7 3 4 10 6 20 21 20 18 16 15 14 12 13 13 15 17 18 21 23 27 32 31 33 36 36 37 34 33 30 28 27 27 25
11 5 4 9 4 11 7 7 8 1 0 2 5 11 12 15 15 11 13 11 13 13 13 13 15 18 18 17 19 23 25 27 29 31 32 33 33 34 32 31 29 28 26 24
3 4 2 11 6 6 6 11 4 3 6 7 9 11 10 3 8 12 12 9 9 9 11 12 11 17 18 19 19 18 22 26 27 28 30 31 31 31 31 28 29 27 25 22
5 3 4 9 10 14 4 4 4 3 4 3 4 8 5 13 12 9 7 5 8 10 8 11 12 16 19 18 14 15 17 21 22 25 27 28 29 29 29 30 29 28 25 24
11 2 5 10 4 1 16 13 13 4 6 4 6 13 8 8 5 3 11 12 6 6 8 10 12 16 16 15 10 12 13 17 21 21 24 26 26 26 27 28 29 28 27 25
14 8 5 4 4 7 9 18 18 18 0 13 7 15 5 1 4 8 9 13 12 9 9 9 8 12 15 11 12 13 14 16 18 20 22 23 24 24 26 27 25 23 22 21
15 6 14 13 6 6 11 16 19 19 9 20 16 32 29 20 17 18 16 17 18 20 19 12 9 8 12 13 13 14 15 14 16 19 21 23 24 23 22 20 20 20 21 20
12 8 15 18 6 2 3 4 17 22 27 16 26 25 39 14 14 13 10 13 17 17 19 20 16 11 14 14 15 17 18 15 14 15 16 18 20 21 19 19 20 20 20 19
3 2 5 5 12 11 13 14 15 14 13 13 24 26 44 16 16 15 16 15 17 18 17 17 11 11 13 16 18 18 19 16 15 16 17 17 20 21 20 19 18 18 18 18
7 5 3 5 6 4 7 25 22 23 21 20 19 31 28 19 17 18 19 18 19 20 21 22 22 19 21 21 24 23 22 18 17 16 16 17 19 19 20 20 20 19 18 17
6 5 1 3 1 13 9 5 17 23 25 21 24 33 34 21 22 21 18 20 20 21 22 25 22 27 26 24 27 26 24 22 21 21 20 20 20 21 21 20 20 19 18 17
7 4 4 4 6 8 13 6 7 9 19 19 24 27 26 19 21 27 18 20 22 21 20 25 33 35 29 23 24 28 28 29 28 27 27 27 26 25 25 25 25 23 23 22
8 7 6 3 4 6 11 8 8 3 16 17 21 25 25 18 13 20 5 8 10 15 23 25 32 32 27 27 27 28 28 29 29 33 35 32 31 30 30 29 29 27 27 25
6 4 11 10 6 9 5 5 7 8 18 4 8 17 18 15 16 27 18 19 22 25 30 32 31 30 32 27 28 28 26 31 39 39 36 35 34 33 32 31 30 29 28 27
9 10 7 7 6 15 13 8 14 11 13 5 5 10 15 17 20 23 19 19 18 20 28 33 25 30 34 29 29 27 28 41 39 41 38 37 34 34 32 32 32 32 31 28
5 9 6 10 8 15 10 9 4 5 6 5 7 14 16 21 22 21 22 21 20 20 24 28 30 33 35 28 33 26 37 32 40 37 37 37 34 34 35 37 36 33 32 27
5 2 5 6 14 20 16 3 10 11 14 15 10 12 15 20 23 23 20 20 20 23 23 26 27 27 27 26 33 39 27 33 35 32 31 32 33 33 33 30 31 27 26 24
1 0 4 9 20 15 22 12 13 17 17 17 15 14 14 19 24 22 21 20 19 26 31 27 25 28 26 24 28 32 31 34 32 25 23 26 28 31 29 26 26 25 25 28
5 4 6 11 8 7 14 16 23 22 19 19 21 23 17 18 21 22 22 21 24 26 33 31 28 25 25 23 25 27 29 32 31 27 25 24 23 24 24 23 16 23 25 26

GFSCGP_925_spd_135.txt.gz
Wind_Speed
10 6 12 19 9 7 9 8 18 15 2 5 15 17 20 18 20 20 19 18 16 16 18 21 20 23 23 24 27 29 29 29 27 26 25 25 24 23 24 24 24 23 25 25
8 18 18 18 11 2 6 6 11 7 1 4 12 19 20 21 21 20 21 20 21 20 16 19 21 22 25 28 28 28 30 29 31 29 29 27 26 24 24 24 25 26 27 27
15 9 19 19 13 10 10 10 7 8 5 10 11 23 22 25 23 23 24 22 21 22 21 19 20 25 27 28 29 32 32 32 33 33 28 25 23 25 25 27 27 28 29 29
17 19 14 16 24 18 17 16 10 10 5 3 1 9 16 17 17 16 16 18 21 22 21 21 21 25 29 29 28 29 31 33 34 33 30 31 30 25 29 27 27 27 30 30
14 18 19 19 20 21 13 16 19 16 8 9 14 7 7 10 15 17 17 21 21 20 19 19 19 26 28 23 28 27 28 31 33 33 34 31 30 29 25 26 26 29 27 31
7 7 16 20 16 20 8 7 12 12 8 7 16 14 11 11 13 13 17 15 15 14 12 13 17 18 19 19 18 24 27 29 31 33 34 35 32 30 26 28 28 28 29 29
7 12 4 7 16 16 13 15 4 5 5 8 4 9 14 12 10 13 11 6 4 4 6 7 8 10 14 17 20 22 26 29 30 33 35 36 36 32 33 29 29 27 27 28
8 8 15 15 14 9 14 13 5 5 5 4 1 9 4 11 14 16 15 11 9 8 8 9 9 12 15 14 18 21 25 28 29 32 35 35 36 35 33 32 30 30 29 29
4 2 11 11 10 15 8 8 5 3 2 2 7 12 14 15 12 9 7 7 5 5 9 9 10 11 13 14 15 18 21 26 28 31 31 33 36 36 36 34 33 31 29 27
3 4 6 10 3 6 8 11 3 2 4 6 9 13 11 4 5 4 2 4 4 7 7 10 10 12 12 13 15 16 20 23 24 26 30 32 34 35 36 33 33 32 30 27
4 2 4 9 9 10 3 5 2 4 3 4 5 7 6 5 7 8 8 4 5 5 4 9 9 13 13 11 11 13 15 17 20 23 26 28 30 32 32 32 32 31 28 26
8 2 5 12 2 5 17 10 7 5 6 6 4 10 5 7 1 4 6 7 3 3 4 6 7 14 18 17 13 11 12 15 16 18 21 24 25 26 28 29 30 28 28 27
9 4 3 8 2 4 10 17 16 15 5 6 3 9 6 8 1 5 7 10 10 8 10 12 13 11 17 17 16 13 12 14 15 14 17 20 23 25 27 27 27 26 26 26
13 8 8 8 5 6 13 13 19 18 10 19 16 30 24 14 14 16 15 13 14 14 14 14 15 15 21 18 16 15 15 14 14 14 17 20 22 23 24 23 23 24 25 24
6 6 13 17 17 6 8 18 19 21 24 20 22 25 33 12 11 12 14 13 14 14 14 16 16 16 21 20 21 21 23 19 17 16 17 20 19 20 21 23 23 23 24 23
8 1 7 8 12 9 9 6 11 17 21 18 24 25 37 15 16 15 9 14 15 14 20 21 18 17 18 23 23 22 23 24 21 20 20 18 21 24 23 24 26 26 25 25
10 5 3 4 6 7 9 23 22 20 18 19 18 26 25 18 17 16 18 17 18 20 21 18 17 16 21 23 25 21 25 24 24 23 22 21 22 23 25 24 24 25 25 25
7 6 2 2 3 10 10 11 16 23 25 23 22 26 29 21 22 17 18 16 18 19 17 15 13 22 27 28 28 26 26 26 27 27 25 22 23 24 25 26 26 26 26 27
1 6 3 5 8 10 15 9 8 11 18 18 20 22 21 20 19 16 12 13 14 15 14 19 26 31 33 29 29 27 25 28 29 29 29 29 28 26 27 30 30 29 29 29
2 1 5 4 5 6 9 8 10 8 11 16 18 20 18 15 12 9 18 17 17 20 22 25 31 33 33 31 29 29 28 29 23 32 37 37 34 33 33 33 32 30 32 30
4 3 7 7 4 6 10 6 0 6 11 9 11 12 12 8 11 15 17 18 22 23 25 30 32 30 31 31 33 27 28 26 33 38 37 36 37 38 36 32 30 29 30 27
9 8 5 5 3 10 8 4 10 6 11 12 13 14 14 15 17 17 15 16 18 20 28 30 30 32 35 32 29 31 29 32 35 36 35 36 37 38 35 31 29 27 29 28
5 6 5 8 6 4 3 7 11 12 8 11 14 17 18 18 19 20 19 19 17 22 26 29 31 36 38 32 27 30 36 33 35 34 36 33 33 36 34 32 29 28 29 24
3 4 2 1 11 14 3 11 15 15 14 14 15 17 18 21 21 22 20 18 17 24 22 25 30 33 36 35 33 32 34 34 35 32 31 28 27 26 29 30 30 28 27 25
2 1 3 8 14 15 13 13 17 21 17 16 17 18 19 21 22 22 20 21 21 24 28 27 27 31 36 36 37 34 33 29 28 31 26 23 23 26 26 29 27 28 30 33
5 4 3 6 6 6 8 17 24 17 18 20 21 23 22 21 22 21 20 25 29 29 30 28 30 31 33 37 39 35 31 27 25 24 21 21 22 22 22 23 21 23 25 26

GFSCGP_925_spd_138.txt.gz
Wind_Speed
9 6 14 26 12 9 5 11 11 10 2 2 10 11 11 10 10 10 9 9 10 9 11 17 22 27 28 28 29 31 32 32 31 31 30 31 31 31 30 28 28 29 28 29
6 16 21 9 13 13 11 7 13 14 5 3 8 14 11 14 12 10 10 10 10 9 9 12 19 24 29 32 33 30 33 34 35 32 34 30 29 30 33 31 31 31 31 31
19 16 13 14 14 13 12 15 8 4 11 6 9 16 16 20 18 21 21 17 12 12 10 10 15 24 29 33 35 35 35 33 36 35 29 28 26 28 28 34 35 35 35 35
15 17 16 20 22 16 16 12 8 8 2 2 5 9 9 10 15 13 16 20 16 14 15 12 13 17 31 36 35 36 34 35 35 35 32 32 32 28 33 31 31 35 37 38
10 17 15 17 21 16 6 14 17 10 9 3 11 6 5 10 9 10 12 9 11 10 9 9 11 25 24 34 34 37 37 37 37 36 37 34 33 32 29 29 31 34 36 39
17 3 15 21 16 21 8 4 11 8 7 7 10 13 6 10 13 11 6 6 7 6 3 1 5 7 6 7 16 32 34 36 37 38 38 39 35 32 29 30 32 31 34 38
18 13 5 6 13 9 12 11 4 5 5 9 7 11 15 6 10 3 2 5 7 9 9 9 9 12 14 12 14 12 27 33 34 36 37 39 40 35 35 34 33 31 32 34
8 9 16 10 11 10 20 13 4 7 6 4 1 7 6 10 3 7 6 6 8 9 8 8 6 9 11 12 15 16 21 25 30 31 37 39 39 38 37 36 34 35 34 35
5 7 9 15 7 13 10 10 1 3 4 2 5 7 8 10 4 4 6 7 8 8 7 5 6 6 6 10 11 12 16 22 26 29 33 34 36 36 37 37 36 35 34 33
6 1 3 11 3 2 9 8 5 3 7 5 5 5 6 2 3 6 8 9 8 7 3 4 6 10 10 9 12 13 12 17 21 24 29 32 34 36 36 35 34 35 36 35
7 2 3 1 5 10 4 8 2 2 1 4 2 4 3 5 13 10 8 7 7 5 1 4 6 11 16 16 13 13 12 12 16 18 21 26 30 33 34 34 35 36 36 36
6 3 2 2 3 5 2 4 7 4 5 3 3 5 6 5 8 10 8 7 5 4 3 4 7 11 20 21 20 15 16 16 16 16 19 24 27 30 31 35 35 35 36 36
10 3 3 5 2 8 5 4 5 6 3 5 4 5 3 12 8 6 6 7 4 4 4 5 6 9 16 20 21 22 20 20 20 17 18 21 25 28 30 33 35 33 34 35
12 4 5 2 6 3 4 16 16 13 2 4 7 9 15 11 8 6 8 7 6 6 5 6 7 8 17 20 22 24 26 23 23 20 20 21 24 26 28 30 31 32 33 35
7 5 4 6 3 6 7 7 14 20 18 8 20 17 15 6 3 5 6 7 6 8 7 9 8 7 14 22 27 28 27 30 27 24 22 24 23 24 27 27 29 30 33 35
2 1 1 2 1 1 8 7 6 13 13 10 19 22 7 5 6 7 7 6 7 11 12 9 8 8 13 21 26 30 32 34 30 27 27 25 23 23 26 29 29 31 32 33
6 4 3 3 1 4 2 14 10 5 8 9 14 23 4 9 7 5 6 13 14 8 8 9 10 14 22 25 30 31 33 38 36 31 32 30 26 27 28 27 29 31 34 34
6 6 2 2 4 2 7 3 13 17 17 14 15 18 18 17 5 6 14 13 12 13 13 13 17 24 28 29 30 32 33 39 39 36 37 36 32 31 29 26 28 33 33 35
7 4 2 4 3 4 8 4 5 5 7 8 11 14 12 10 4 6 14 12 10 10 12 17 21 25 28 31 32 33 34 32 37 41 41 42 39 35 31 30 31 33 34 34
5 6 2 2 3 6 4 2 2 4 4 16 14 12 13 9 3 2 18 14 13 15 17 22 27 28 28 31 34 34 31 31 29 35 41 45 40 38 34 34 34 34 35 36
4 2 5 3 3 7 5 1 4 6 3 10 13 13 12 5 5 10 13 17 21 22 27 31 28 27 27 32 36 35 30 28 34 38 42 44 42 39 38 36 34 30 31 33
6 6 4 3 3 5 3 4 2 4 8 12 11 12 10 10 11 12 12 13 18 22 27 28 30 29 30 30 31 34 32 34 37 38 38 40 42 39 35 33 32 29 28 27
3 5 5 7 4 3 12 15 11 10 4 9 10 12 13 14 15 15 15 14 16 22 28 30 27 35 32 29 29 34 36 37 41 40 38 36 37 35 32 30 27 26 27 26
2 1 2 4 7 7 13 12 12 10 10 10 11 12 13 15 14 16 15 14 17 21 24 28 33 31 37 33 33 30 34 42 40 39 39 36 30 27 26 25 24 25 25 25
0 3 2 1 7 7 11 13 15 13 12 14 14 14 14 15 16 16 16 16 21 24 28 27 29 32 33 37 37 41 37 37 36 38 36 34 29 24 24 26 26 29 32 33
5 4 1 2 6 4 6 15 15 15 18 17 19 21 21 20 18 21 15 23 25 27 29 29 29 30 32 34 42 42 37 32 36 36 31 29 29 25 24 23 22 30 33 33

GFSCGP_925_spd_141.txt.gz
Wind_Speed
6 6 16 16 13 4 5 3 3 1 4 10 6 8 8 8 8 9 9 9 9 10 14 15 32 36 36 36 35 34 36 38 37 38 37 36 37 35 35 35 36 35 34 33
6 19 17 3 9 9 5 5 5 6 3 2 8 20 16 13 11 9 8 9 9 9 9 17 17 32 37 41 41 38 37 40 44 41 41 35 31 34 37 37 37 35 36 36
16 13 11 13 9 14 12 18 13 8 3 1 8 19 16 13 11 14 17 18 14 12 13 10 18 30 37 36 41 41 41 41 43 42 34 31 28 30 30 37 39 41 38 38
14 16 14 12 15 14 17 15 11 9 4 4 4 8 7 6 13 14 15 18 20 19 18 15 11 15 23 36 43 43 42 42 42 41 34 34 33 31 37 36 34 36 42 42
11 14 17 16 22 18 11 11 14 7 6 1 6 3 7 7 7 17 10 12 13 15 16 14 11 22 27 26 37 41 42 43 41 40 39 35 33 34 32 33 33 38 41 46
11 8 17 18 10 22 6 8 7 4 5 7 12 9 8 7 9 4 4 7 6 8 8 7 8 10 11 7 8 30 31 38 40 39 43 41 38 36 30 31 33 34 36 39
14 17 3 10 9 17 7 9 5 5 6 6 7 9 17 9 6 4 6 8 8 8 8 8 9 13 14 11 7 5 13 28 35 39 39 40 40 35 36 34 34 31 32 33
7 7 13 9 10 11 18 12 5 6 5 5 9 8 7 11 11 7 7 8 9 9 8 8 7 11 13 15 14 10 8 14 21 31 37 40 39 36 36 35 34 32 34 34
6 5 4 3 6 13 13 12 5 5 2 2 5 7 9 10 5 6 9 9 7 8 7 5 5 5 6 9 12 13 15 15 18 22 27 34 37 36 34 35 33 34 35 36
5 3 3 11 1 2 9 10 6 3 6 5 5 5 5 4 7 8 10 9 6 6 6 3 4 5 8 13 13 13 12 15 17 17 21 27 32 35 38 36 35 34 36 37
10 4 1 4 6 15 6 10 7 6 3 7 3 5 5 9 10 11 9 9 9 7 4 4 4 8 15 17 18 16 15 18 20 20 18 19 23 28 33 38 39 42 42 40
10 4 5 5 6 4 8 6 7 9 8 3 3 4 5 9 10 7 7 7 5 4 1 5 6 11 17 19 20 21 21 21 22 21 20 20 22 25 27 31 36 39 40 41
11 5 3 2 3 8 5 3 6 3 3 4 4 5 1 9 6 7 9 5 5 5 3 4 6 9 16 21 25 30 31 32 31 27 22 23 22 23 27 31 33 34 38 40
11 5 5 10 4 4 3 11 15 5 1 4 4 3 5 3 7 5 5 4 5 2 3 3 5 11 21 26 28 30 32 33 36 35 28 26 27 27 26 28 31 34 36 38
7 7 3 3 8 5 6 5 9 9 8 2 8 10 15 14 6 4 4 1 4 7 9 11 11 10 19 23 25 27 28 32 37 36 33 31 32 30 30 29 30 31 33 36
6 4 5 2 4 1 3 6 8 15 14 14 13 18 7 3 4 7 9 9 10 13 13 13 13 16 19 22 25 26 27 29 34 32 33 35 35 36 35 32 32 31 32 33
7 5 3 4 1 5 3 16 12 4 4 12 10 14 6 5 6 10 10 11 12 11 11 12 11 16 21 24 25 26 29 31 32 33 35 36 36 38 37 35 33 33 34 35
5 5 3 3 4 1 8 3 13 15 5 6 8 13 7 1 13 12 11 11 10 11 12 13 19 24 25 27 25 28 30 28 28 29 33 38 36 36 41 40 37 34 33 34
4 5 2 4 2 6 9 2 5 6 2 10 5 11 11 7 9 8 12 11 9 10 13 15 20 23 29 26 28 31 30 28 30 28 29 33 37 37 36 36 37 38 34 29
4 5 4 2 5 8 5 5 4 5 2 9 10 11 12 10 2 1 12 11 11 15 15 20 22 25 23 27 33 32 28 29 30 33 35 35 36 36 35 35 36 37 36 35
4 3 6 4 2 6 7 8 4 6 2 6 9 10 10 4 4 10 15 16 19 19 23 25 25 24 24 32 32 32 31 28 32 34 35 39 36 35 36 37 37 36 35 32
6 6 4 3 2 6 9 4 3 2 9 8 8 9 8 8 8 9 11 14 19 24 28 27 27 27 30 28 30 33 29 33 32 40 42 39 36 34 34 34 36 29 26 26
2 6 5 5 3 6 14 16 9 9 8 6 8 10 11 13 12 13 12 12 18 23 25 26 27 32 27 28 27 30 34 35 43 41 40 38 35 34 33 31 30 27 24 22
1 1 3 6 4 8 10 11 10 9 8 6 8 9 11 12 14 14 14 13 18 21 24 26 29 31 33 28 27 31 33 40 38 38 36 34 37 37 33 30 27 26 24 24
0 2 5 6 6 8 8 10 7 7 8 9 11 11 12 14 14 14 15 18 22 24 26 27 26 28 33 35 34 34 37 35 36 37 35 34 31 32 34 33 32 31 32 29
2 3 3 3 7 2 6 7 8 8 10 10 11 13 16 16 15 21 17 22 23 26 28 27 27 28 31 32 33 36 35 35 33 35 33 33 33 33 31 32 34 31 35 36